| time (UTC) | temp F | wind direction | speed MPH | gust MPH | rain 1hr in | rain 24hr in | rain mn in | humidity % | barometer mb |
| 20260504220200 | 81 | 252 | 4.0 | 11.0 | 0.00 | 0.00 | 0.00 | 51 | 1003.7 |
| 20260504215656 | 81 | 189 | 7.0 | 23.0 | 0.00 | 0.00 | 0.00 | 51 | 1003.8 |
| 20260504215154 | 81 | 200 | 6.0 | 10.0 | 0.00 | 0.00 | 0.00 | 51 | 1003.8 |
| 20260504214649 | 81 | 207 | 4.0 | 14.0 | 0.00 | 0.00 | 0.00 | 51 | 1003.7 |
| 20260504214146 | 82 | 182 | 5.0 | 11.0 | 0.00 | 0.00 | 0.00 | 50 | 1004.0 |
| 20260504213643 | 82 | 191 | 8.0 | 11.0 | 0.00 | 0.00 | 0.00 | 50 | 1004.0 |
| 20260504213139 | 81 | 91 | 5.0 | 11.0 | 0.00 | 0.00 | 0.00 | 50 | 1004.2 |
| 20260504212636 | 81 | 162 | 6.0 | 15.0 | 0.00 | 0.00 | 0.00 | 50 | 1004.1 |
| 20260504212132 | 82 | 147 | 8.0 | 13.0 | 0.00 | 0.00 | 0.00 | 49 | 1004.0 |
| 20260504211630 | 82 | 201 | 6.0 | 9.0 | 0.00 | 0.00 | 0.00 | 49 | 1004.3 |
| 20260504211126 | 82 | 121 | 1.0 | 6.0 | 0.00 | 0.00 | 0.00 | 48 | 1004.4 |
| 20260504210624 | 81 | 193 | 5.0 | 21.0 | 0.00 | 0.00 | 0.00 | 48 | 1004.5 |
| 20260504210120 | 82 | 189 | 4.0 | 14.0 | 0.00 | 0.00 | 0.00 | 48 | 1004.6 |
| 20260504205618 | 82 | 245 | 8.0 | 13.0 | 0.00 | 0.00 | 0.00 | 47 | 1004.6 |
| 20260504205115 | 83 | 242 | 7.0 | 14.0 | 0.00 | 0.00 | 0.00 | 46 | 1004.8 |
| 20260504204614 | 82 | 223 | 2.0 | 11.0 | 0.00 | 0.00 | 0.00 | 47 | 1004.7 |
| 20260504204112 | 83 | 259 | 12.0 | 16.0 | 0.00 | 0.00 | 0.00 | 47 | 1004.7 |
| 20260504203611 | 82 | 185 | 6.0 | 11.0 | 0.00 | 0.00 | 0.00 | 47 | 1005.0 |
| 20260504203108 | 83 | 193 | 5.0 | 15.0 | 0.00 | 0.00 | 0.00 | 46 | 1004.9 |
| 20260504202603 | 82 | 197 | 7.0 | 11.0 | 0.00 | 0.00 | 0.00 | 46 | 1005.0 |
| 20260504202100 | 83 | 120 | 12.0 | 15.0 | 0.00 | 0.00 | 0.00 | 46 | 1005.0 |
| 20260504201557 | 83 | 236 | 9.0 | 17.0 | 0.00 | 0.00 | 0.00 | 46 | 1005.1 |
| 20260504201055 | 83 | 204 | 6.0 | 9.0 | 0.00 | 0.00 | 0.00 | 46 | 1005.2 |
| 20260504200551 | 82 | 218 | 4.0 | 10.0 | 0.00 | 0.00 | 0.00 | 46 | 1005.0 |
| 20260504200048 | 83 | 183 | 7.0 | 11.0 | 0.00 | 0.00 | 0.00 | 44 | 1005.4 |
| 20260504195544 | 82 | 234 | 10.0 | 16.0 | 0.00 | 0.00 | 0.00 | 45 | 1005.6 |
| 20260504195040 | 83 | 282 | 6.0 | 10.0 | 0.00 | 0.00 | 0.00 | 45 | 1005.6 |
| 20260504194537 | 82 | 186 | 11.0 | 14.0 | 0.00 | 0.00 | 0.00 | 46 | 1005.6 |
| 20260504194033 | 82 | 217 | 9.0 | 16.0 | 0.00 | 0.00 | 0.00 | 45 | 1005.6 |
| 20260504193529 | 82 | 169 | 2.0 | 13.0 | 0.00 | 0.00 | 0.00 | 46 | 1005.8 |
| 20260504193028 | 81 | 205 | 10.0 | 24.0 | 0.00 | 0.00 | 0.00 | 46 | 1006.0 |
| 20260504192526 | 81 | 198 | 9.0 | 17.0 | 0.00 | 0.00 | 0.00 | 46 | 1006.0 |
| 20260504192024 | 81 | 179 | 6.0 | 23.0 | 0.00 | 0.00 | 0.00 | 46 | 1005.9 |
| 20260504191521 | 81 | 225 | 12.0 | 16.0 | 0.00 | 0.00 | 0.00 | 46 | 1006.1 |
| 20260504191017 | 81 | 182 | 4.0 | 15.0 | 0.00 | 0.00 | 0.00 | 45 | 1006.1 |
| 20260504190513 | 80 | 231 | 7.0 | 15.0 | 0.00 | 0.00 | 0.00 | 45 | 1006.1 |
| 20260504190009 | 80 | 240 | 10.0 | 18.0 | 0.00 | 0.00 | 0.00 | 46 | 1006.4 |
| 20260504185507 | 81 | 198 | 4.0 | 9.0 | 0.00 | 0.00 | 0.00 | 46 | 1006.3 |
| 20260504185004 | 80 | 250 | 5.0 | 10.0 | 0.00 | 0.00 | 0.00 | 46 | 1006.4 |
| 20260504184459 | 80 | 200 | 9.0 | 17.0 | 0.00 | 0.00 | 0.00 | 46 | 1006.6 |
| 20260504183954 | 80 | 203 | 9.0 | 15.0 | 0.00 | 0.00 | 0.00 | 46 | 1006.7 |
| 20260504183452 | 80 | 198 | 6.0 | 11.0 | 0.00 | 0.00 | 0.00 | 46 | 1006.6 |
| 20260504182950 | 79 | 187 | 6.0 | 18.0 | 0.00 | 0.00 | 0.00 | 47 | 1006.6 |
| 20260504182446 | 79 | 193 | 10.0 | 16.0 | 0.00 | 0.00 | 0.00 | 46 | 1006.7 |
| 20260504181944 | 79 | 166 | 10.0 | 17.0 | 0.00 | 0.00 | 0.00 | 47 | 1006.7 |
| 20260504181441 | 80 | 178 | 6.0 | 14.0 | 0.00 | 0.00 | 0.00 | 46 | 1006.7 |
| 20260504180939 | 79 | 191 | 11.0 | 15.0 | 0.00 | 0.00 | 0.00 | 46 | 1006.9 |
| 20260504180438 | 79 | 194 | 12.0 | 17.0 | 0.00 | 0.00 | 0.00 | 46 | 1006.8 |
| 20260504175936 | 79 | 241 | 8.0 | 16.0 | 0.00 | 0.00 | 0.00 | 46 | 1007.0 |
| 20260504175433 | 78 | 220 | 8.0 | 13.0 | 0.00 | 0.00 | 0.00 | 46 | 1007.1 |
| 20260504174930 | 78 | 181 | 9.0 | 21.0 | 0.00 | 0.00 | 0.00 | 46 | 1007.2 |
| 20260504174427 | 79 | 172 | 8.0 | 15.0 | 0.00 | 0.00 | 0.00 | 46 | 1007.5 |
| 20260504173925 | 79 | 218 | 8.0 | 14.0 | 0.00 | 0.00 | 0.00 | 46 | 1007.4 |
| 20260504173421 | 78 | 174 | 6.0 | 16.0 | 0.00 | 0.00 | 0.00 | 45 | 1007.5 |
| 20260504172919 | 78 | 238 | 12.0 | 15.0 | 0.00 | 0.00 | 0.00 | 45 | 1007.4 |
| 20260504172415 | 78 | 203 | 9.0 | 13.0 | 0.00 | 0.00 | 0.00 | 45 | 1007.4 |
| 20260504171911 | 79 | 131 | 8.0 | 11.0 | 0.00 | 0.00 | 0.00 | 45 | 1007.5 |
| 20260504171409 | 78 | 210 | 8.0 | 17.0 | 0.00 | 0.00 | 0.00 | 45 | 1007.6 |
| 20260504170905 | 78 | 222 | 5.0 | 14.0 | 0.00 | 0.00 | 0.00 | 45 | 1007.5 |
| 20260504170402 | 77 | 199 | 8.0 | 17.0 | 0.00 | 0.00 | 0.00 | 47 | 1007.6 |
| 20260504160321 | 75 | 227 | 7.0 | 15.0 | 0.00 | 0.00 | 0.00 | 48 | 1008.1 |
| 20260504150745 | 72 | 190 | 7.0 | 10.0 | 0.00 | 0.00 | 0.00 | 50 | 1008.5 |
| 20260504150242 | 71 | 214 | 10.0 | 18.0 | 0.00 | 0.00 | 0.00 | 50 | 1008.6 |
| 20260504141212 | 69 | 182 | 7.0 | 13.0 | 0.00 | 0.00 | 0.00 | 53 | 1008.9 |
| 20260504140708 | 69 | 171 | 9.0 | 13.0 | 0.00 | 0.00 | 0.00 | 53 | 1008.7 |
| 20260504140203 | 68 | 208 | 4.0 | 11.0 | 0.00 | 0.00 | 0.00 | 53 | 1008.8 |
| 20260504130632 | 65 | 182 | 11.0 | 18.0 | 0.00 | 0.00 | 0.00 | 57 | 1009.0 |
| 20260504130129 | 65 | 220 | 9.0 | 14.0 | 0.00 | 0.00 | 0.00 | 57 | 1009.2 |
| 20260504110520 | 64 | 199 | 4.0 | 9.0 | 0.00 | 0.00 | 0.00 | 55 | 1009.3 |
| 20260504100436 | 65 | 149 | 5.0 | 10.0 | 0.00 | 0.00 | 0.00 | 51 | 1009.5 |
| 20260504081829 | 68 | 238 | 4.0 | 9.0 | 0.00 | 0.00 | 0.00 | 45 | 1010.3 |
| 20260504081326 | 68 | 161 | 10.0 | 14.0 | 0.00 | 0.00 | 0.00 | 45 | 1010.4 |
| 20260504080822 | 68 | 196 | 3.0 | 8.0 | 0.00 | 0.00 | 0.00 | 45 | 1010.5 |
| 20260504080319 | 68 | 209 | 8.0 | 9.0 | 0.00 | 0.00 | 0.00 | 45 | 1010.3 |
| 20260504070246 | 69 | 189 | 6.0 | 13.0 | 0.00 | 0.00 | 0.00 | 42 | 1011.1 |
| 20260504060207 | 70 | 120 | 4.0 | 11.0 | 0.00 | 0.00 | 0.00 | 40 | 1012.0 |
| 20260504050629 | 71 | 200 | 8.0 | 14.0 | 0.00 | 0.00 | 0.00 | 40 | 1012.5 |
| 20260504050127 | 70 | 165 | 6.0 | 11.0 | 0.00 | 0.00 | 0.00 | 41 | 1012.7 |
| 20260504045624 | 71 | 176 | 4.0 | 9.0 | 0.00 | 0.00 | 0.00 | 40 | 1012.7 |
| 20260504045124 | 71 | 226 | 9.0 | 13.0 | 0.00 | 0.00 | 0.00 | 40 | 1012.6 |
| 20260504044622 | 71 | 172 | 6.0 | 8.0 | 0.00 | 0.00 | 0.00 | 40 | 1012.6 |
| 20260504044118 | 71 | 193 | 6.0 | 21.0 | 0.00 | 0.00 | 0.00 | 40 | 1012.4 |
| 20260504043615 | 71 | 185 | 10.0 | 16.0 | 0.00 | 0.00 | 0.00 | 40 | 1012.6 |
| 20260504043113 | 71 | 269 | 6.0 | 14.0 | 0.00 | 0.00 | 0.00 | 40 | 1012.6 |
| 20260504042610 | 71 | 206 | 7.0 | 16.0 | 0.00 | 0.00 | 0.00 | 40 | 1012.6 |
| 20260504042107 | 71 | 208 | 6.0 | 9.0 | 0.00 | 0.00 | 0.00 | 40 | 1012.5 |
| 20260504041602 | 71 | 162 | 6.0 | 10.0 | 0.00 | 0.00 | 0.00 | 39 | 1012.5 |
| 20260504041059 | 72 | 208 | 3.0 | 15.0 | 0.00 | 0.00 | 0.00 | 39 | 1012.6 |
| 20260504040556 | 72 | 186 | 3.0 | 8.0 | 0.00 | 0.00 | 0.00 | 39 | 1012.5 |
| 20260504040053 | 72 | 177 | 5.0 | 6.0 | 0.00 | 0.00 | 0.00 | 38 | 1012.9 |
| 20260504035549 | 72 | 202 | 6.0 | 13.0 | 0.00 | 0.00 | 0.00 | 38 | 1012.8 |
| 20260504035045 | 72 | 197 | 9.0 | 14.0 | 0.00 | 0.00 | 0.00 | 38 | 1012.9 |
| 20260504034544 | 72 | 211 | 8.0 | 11.0 | 0.00 | 0.00 | 0.00 | 38 | 1012.9 |
| 20260504034035 | 72 | 153 | 5.0 | 7.0 | 0.00 | 0.00 | 0.00 | 38 | 1012.7 |
| 20260504033533 | 72 | 189 | 7.0 | 11.0 | 0.00 | 0.00 | 0.00 | 38 | 1013.0 |
| 20260504033030 | 73 | 203 | 2.0 | 16.0 | 0.00 | 0.00 | 0.00 | 37 | 1013.1 |
| 20260504032527 | 73 | 228 | 7.0 | 13.0 | 0.00 | 0.00 | 0.00 | 37 | 1013.0 |
| 20260504032024 | 73 | 206 | 5.0 | 10.0 | 0.00 | 0.00 | 0.00 | 37 | 1012.9 |
| 20260504031521 | 73 | 181 | 6.0 | 14.0 | 0.00 | 0.00 | 0.00 | 37 | 1012.8 |
| 20260504031017 | 73 | 184 | 6.0 | 9.0 | 0.00 | 0.00 | 0.00 | 37 | 1012.9 |
| 20260504030515 | 73 | 183 | 6.0 | 10.0 | 0.00 | 0.00 | 0.00 | 37 | 1013.0 |
| 20260504030010 | 73 | 219 | 4.0 | 9.0 | 0.00 | 0.00 | 0.00 | 37 | 1012.8 |
| 20260504025508 | 74 | 181 | 4.0 | 9.0 | 0.00 | 0.00 | 0.00 | 37 | 1013.0 |
| 20260504025005 | 74 | 189 | 5.0 | 9.0 | 0.00 | 0.00 | 0.00 | 36 | 1012.8 |
| 20260504024502 | 74 | 208 | 4.0 | 15.0 | 0.00 | 0.00 | 0.00 | 36 | 1012.9 |
| 20260504023959 | 74 | 188 | 8.0 | 14.0 | 0.00 | 0.00 | 0.00 | 36 | 1012.8 |
| 20260504023455 | 75 | 199 | 5.0 | 13.0 | 0.00 | 0.00 | 0.00 | 35 | 1012.8 |
| 20260504022950 | 75 | 218 | 6.0 | 10.0 | 0.00 | 0.00 | 0.00 | 35 | 1012.7 |
| 20260504022447 | 75 | 186 | 9.0 | 13.0 | 0.00 | 0.00 | 0.00 | 35 | 1012.8 |
| 20260504021944 | 75 | 274 | 5.0 | 11.0 | 0.00 | 0.00 | 0.00 | 35 | 1012.7 |
| 20260504021441 | 75 | 184 | 7.0 | 9.0 | 0.00 | 0.00 | 0.00 | 35 | 1012.7 |
| 20260504020938 | 75 | 153 | 3.0 | 13.0 | 0.00 | 0.00 | 0.00 | 34 | 1012.7 |
| 20260504020435 | 75 | 217 | 5.0 | 11.0 | 0.00 | 0.00 | 0.00 | 34 | 1012.7 |
| 20260504015931 | 75 | 210 | 2.0 | 8.0 | 0.00 | 0.00 | 0.00 | 34 | 1012.6 |
| 20260504015427 | 76 | 246 | 5.0 | 14.0 | 0.00 | 0.00 | 0.00 | 33 | 1012.7 |
| 20260504014923 | 76 | 205 | 8.0 | 10.0 | 0.00 | 0.00 | 0.00 | 33 | 1012.4 |
| 20260504014420 | 76 | 209 | 6.0 | 10.0 | 0.00 | 0.00 | 0.00 | 33 | 1012.5 |
| 20260504013916 | 76 | 221 | 6.0 | 13.0 | 0.00 | 0.00 | 0.00 | 32 | 1012.4 |
| 20260504013415 | 77 | 206 | 8.0 | 14.0 | 0.00 | 0.00 | 0.00 | 32 | 1012.3 |
| 20260504012911 | 77 | 191 | 10.0 | 13.0 | 0.00 | 0.00 | 0.00 | 32 | 1012.4 |
| 20260504012409 | 77 | 209 | 6.0 | 8.0 | 0.00 | 0.00 | 0.00 | 32 | 1012.3 |
| 20260504011906 | 77 | 160 | 10.0 | 14.0 | 0.00 | 0.00 | 0.00 | 31 | 1012.5 |
| 20260504011403 | 77 | 127 | 6.0 | 14.0 | 0.00 | 0.00 | 0.00 | 31 | 1012.3 |
| 20260504010858 | 78 | 181 | 3.0 | 17.0 | 0.00 | 0.00 | 0.00 | 30 | 1012.5 |
| 20260504010354 | 78 | 179 | 9.0 | 13.0 | 0.00 | 0.00 | 0.00 | 29 | 1012.4 |
| 20260504005845 | 78 | 160 | 6.0 | 14.0 | 0.00 | 0.00 | 0.00 | 29 | 1012.4 |
| 20260504005342 | 79 | 215 | 9.0 | 17.0 | 0.00 | 0.00 | 0.00 | 28 | 1012.3 |
| 20260504004840 | 79 | 207 | 5.0 | 13.0 | 0.00 | 0.00 | 0.00 | 28 | 1012.5 |
| 20260504004337 | 79 | 163 | 6.0 | 14.0 | 0.00 | 0.00 | 0.00 | 28 | 1012.3 |
| 20260504003833 | 79 | 187 | 9.0 | 10.0 | 0.00 | 0.00 | 0.00 | 28 | 1012.4 |
| 20260504003330 | 80 | 242 | 6.0 | 10.0 | 0.00 | 0.00 | 0.00 | 28 | 1012.4 |
| 20260504002827 | 80 | 121 | 10.0 | 13.0 | 0.00 | 0.00 | 0.00 | 27 | 1012.6 |
| 20260504002324 | 81 | 148 | 6.0 | 9.0 | 0.00 | 0.00 | 0.00 | 27 | 1012.5 |
| 20260504001822 | 81 | 168 | 7.0 | 13.0 | 0.00 | 0.00 | 0.00 | 27 | 1012.7 |
| 20260504001319 | 82 | 195 | 4.0 | 15.0 | 0.00 | 0.00 | 0.00 | 26 | 1012.6 |
| 20260504000815 | 82 | 264 | 7.0 | 14.0 | 0.00 | 0.00 | 0.00 | 26 | 1012.7 |
| 20260504000312 | 82 | 239 | 5.0 | 8.0 | 0.00 | 0.00 | 0.00 | 26 | 1012.8 |
| 20260503235810 | 82 | 203 | 10.0 | 14.0 | 0.00 | 0.00 | 0.00 | 26 | 1012.6 |
| 20260503235308 | 82 | 164 | 8.0 | 15.0 | 0.00 | 0.00 | 0.00 | 26 | 1012.7 |
| 20260503234805 | 82 | 196 | 8.0 | 14.0 | 0.00 | 0.00 | 0.00 | 25 | 1012.9 |
| 20260503234303 | 83 | 303 | 9.0 | 15.0 | 0.00 | 0.00 | 0.00 | 24 | 1012.8 |
| 20260503233800 | 83 | 249 | 10.0 | 16.0 | 0.00 | 0.00 | 0.00 | 24 | 1012.8 |
| 20260503233255 | 83 | 253 | 8.0 | 14.0 | 0.00 | 0.00 | 0.00 | 24 | 1012.7 |
| 20260503232753 | 83 | 280 | 7.0 | 11.0 | 0.00 | 0.00 | 0.00 | 25 | 1013.1 |
| 20260503232250 | 83 | 163 | 7.0 | 10.0 | 0.00 | 0.00 | 0.00 | 25 | 1012.9 |
| 20260503231748 | 83 | 183 | 6.0 | 11.0 | 0.00 | 0.00 | 0.00 | 26 | 1013.1 |
| 20260503231245 | 83 | 229 | 6.0 | 9.0 | 0.00 | 0.00 | 0.00 | 24 | 1013.1 |
| 20260503230740 | 83 | 183 | 11.0 | 14.0 | 0.00 | 0.00 | 0.00 | 24 | 1013.4 |
| 20260503230238 | 84 | 252 | 7.0 | 13.0 | 0.00 | 0.00 | 0.00 | 25 | 1013.2 |
| 20260503225736 | 84 | 176 | 9.0 | 13.0 | 0.00 | 0.00 | 0.00 | 25 | 1013.1 |
| 20260503225235 | 84 | 233 | 13.0 | 16.0 | 0.00 | 0.00 | 0.00 | 24 | 1013.1 |
| 20260503224732 | 84 | 220 | 6.0 | 15.0 | 0.00 | 0.00 | 0.00 | 24 | 1013.0 |
| 20260503224230 | 84 | 251 | 8.0 | 13.0 | 0.00 | 0.00 | 0.00 | 24 | 1013.1 |
| 20260503223728 | 84 | 185 | 7.0 | 14.0 | 0.00 | 0.00 | 0.00 | 24 | 1013.0 |
| 20260503223225 | 84 | 247 | 10.0 | 15.0 | 0.00 | 0.00 | 0.00 | 23 | 1013.0 |
| 20260503222721 | 85 | 201 | 5.0 | 16.0 | 0.00 | 0.00 | 0.00 | 24 | 1013.2 |
| 20260503222219 | 85 | 232 | 6.0 | 14.0 | 0.00 | 0.00 | 0.00 | 24 | 1013.3 |
| 20260503221717 | 84 | 205 | 7.0 | 13.0 | 0.00 | 0.00 | 0.00 | 24 | 1013.3 |
| 20260503221215 | 84 | 193 | 6.0 | 13.0 | 0.00 | 0.00 | 0.00 | 25 | 1013.3 |
| 20260503220711 | 84 | 184 | 8.0 | 14.0 | 0.00 | 0.00 | 0.00 | 24 | 1013.5 |